Temperature
21 20 20 20 20 20 19 19 19 19 18 18 18 18 18 18 18 17 17 17 17 17 17 17 17 17 16 16 16 16 16 16 16 16 15 15 15 15 15 15 15 15 15
21 20 20 20 20 20 19 19 19 19 18 18 18 18 18 17 17 17 17 17 17 17 16 16 16 16 16 16 16 16 16 15 15 15 15 15 15 15 15 15 15 15 15
21 20 20 20 20 19 19 19 19 18 18 18 18 18 17 17 17 17 17 16 16 16 16 16 16 16 16 16 15 15 15 15 15 15 15 15 15 14 14 15 14 15 14
20 20 20 20 19 19 19 19 18 18 18 18 18 17 17 17 17 17 16 16 16 16 16 16 15 15 15 15 15 15 15 15 15 14 14 14 14 14 14 14 14 14 14
20 20 20 20 19 19 19 18 18 18 18 18 17 17 17 17 17 17 16 16 16 16 16 15 15 15 15 15 15 15 15 14 14 14 14 14 14 14 14 14 14 14 14
20 19 19 19 19 19 18 18 18 18 18 17 17 17 17 17 16 16 16 16 16 15 15 15 15 15 15 15 14 14 14 14 14 14 14 14 14 14 13 13 13 13 13
19 19 19 19 19 18 18 18 18 18 17 17 17 17 17 17 16 16 16 16 15 15 15 15 15 15 14 14 14 14 14 14 14 14 14 14 14 14 13 13 13 13 13
19 19 18 18 18 18 18 17 17 17 17 17 17 17 17 16 16 16 15 15 15 15 15 15 15 14 14 14 14 14 14 14 14 14 13 14 13 13 13 13 13 13 13
19 18 18 18 18 17 17 17 17 17 17 17 17 16 16 16 16 15 15 15 15 15 15 14 14 14 14 14 14 14 14 14 14 14 13 13 13 13 13 13 13 13 13
18 18 18 18 17 17 17 17 17 17 16 16 16 16 16 16 16 15 15 15 15 15 14 14 14 14 14 14 13 13 13 14 14 13 13 13 13 13 13 13 13 12 12
18 18 18 17 17 17 17 17 16 16 16 16 16 16 15 15 15 15 15 14 14 14 14 14 14 14 13 13 13 13 13 13 13 13 13 13 13 13 13 13 13 12 12
18 17 17 17 17 17 17 16 16 16 16 15 15 15 15 15 15 15 14 14 14 14 14 14 14 14 13 13 13 13 13 13 13 13 13 13 13 13 13 13 12 12 12
17 17 17 17 16 16 16 16 16 15 15 15 15 15 15 15 15 14 14 14 14 13 13 13 13 13 13 13 13 13 13 13 13 13 13 13 13 13 12 12 12 12 12
17 16 16 16 16 16 16 16 15 15 15 15 15 14 14 14 14 14 14 14 14 13 13 13 13 13 13 13 13 12 12 12 12 12 13 13 12 12 12 12 12 12 12
16 16 16 16 16 16 15 15 15 15 15 15 14 14 14 14 14 14 13 13 13 13 13 13 13 13 13 13 13 12 12 12 12 12 12 12 12 12 12 12 12 11 11
16 16 15 15 15 15 15 15 15 15 15 14 14 14 14 14 14 14 13 13 13 13 13 13 13 12 12 12 12 12 12 12 12 12 12 12 12 12 11 11 11 11 11
15 15 15 15 15 15 15 15 14 14 14 14 14 14 14 14 13 13 13 13 13 13 13 13 12 12 12 12 12 12 12 12 12 12 11 11 11 11 11 11 11 11 11
15 15 14 14 14 14 14 14 14 14 14 14 14 14 14 13 13 13 13 13 13 12 12 12 12 12 12 12 12 12 11 11 11 11 11 11 11 11 11 11 11 11 11
14 14 14 14 14 14 14 14 13 13 13 13 13 13 13 13 13 13 13 12 12 12 12 12 12 12 11 11 11 11 11 11 11 11 11 11 11 11 11 11 10 10 10
14 14 14 13 13 13 13 13 13 13 13 13 13 13 13 13 13 12 12 12 12 12 12 11 11 11 11 11 11 11 11 11 11 11 11 11 11 11 11 10 10 10 10
14 13 13 13 13 13 13 13 13 13 13 13 12 12 12 12 12 12 12 12 12 11 11 11 11 11 11 11 11 11 11 11 11 11 10 10 10 10 10 10 10 10 10
13 13 13 13 13 13 13 12 12 13 13 12 12 12 12 12 12 12 12 11 11 11 11 11 11 11 11 10 10 10 10 10 10 10 10 10 10 10 10 10 10 10 9
13 13 13 12 12 12 12 12 12 12 12 12 12 12 12 12 12 11 11 11 11 11 11 11 11 10 10 10 10 10 10 10 10 10 10 9 9 9 9 9 9 9 9
12 12 12 12 12 12 12 12 12 12 12 12 12 12 11 11 11 11 11 11 11 11 11 10 10 10 10 10 10 10 10 10 10 9 9 9 9 9 9 9 9 9 9
12 12 12 12 12 11 11 11 12 12 11 11 11 11 11 11 11 11 11 11 10 10 10 10 10 10 10 10 10 10 9 9 9 9 9 9 9 9 9 9 9 8 8
12 12 11 11 11 11 11 11 11 11 11 11 11 11 11 11 11 11 10 10 10 10 10 10 10 10 9 9 9 9 9 9 9 9 9 8 8 8 8 8 8 8 8
Wind_Speed
6 5 4 4 4 3 3 3 2 2 2 2 2 1 1 1 1 1 1 1 1 1 1 1 2 1 1 1 1 1 1 2 3 3 2 2 2 2 2 3 4 4 4
5 4 4 3 3 3 3 3 2 2 2 2 1 1 2 1 1 2 2 1 1 2 2 1 2 1 1 1 1 2 2 2 3 3 2 2 2 3 2 2 3 4 4
5 4 4 4 4 4 4 3 3 2 2 1 2 2 2 2 2 2 2 2 2 2 2 2 2 1 2 2 2 2 2 2 1 2 3 2 2 2 2 3 3 2 3
5 5 5 4 5 4 3 3 2 2 2 2 2 2 3 2 2 2 2 2 2 2 2 2 2 2 3 2 2 2 2 2 1 1 2 2 2 2 1 1 2 2 2
5 5 5 4 4 3 2 2 2 3 3 3 3 3 3 3 2 2 2 3 3 3 2 3 3 3 3 3 2 2 2 2 1 1 2 2 2 1 2 2 2 2 2
5 4 4 3 3 3 3 2 2 2 3 2 3 3 3 3 3 4 3 3 3 3 4 4 4 3 3 3 3 3 3 3 3 2 2 3 3 3 2 2 2 1 2
4 4 4 4 3 3 3 2 3 3 2 2 3 3 3 4 4 4 4 3 4 4 4 4 4 3 2 2 3 3 3 4 5 5 4 5 4 4 3 2 2 3 4
4 4 4 4 4 3 2 3 3 3 3 3 3 3 3 4 4 4 4 3 3 3 4 4 4 4 3 3 3 3 4 5 5 4 5 6 6 5 4 4 4 3 3
4 4 4 4 3 3 3 4 3 2 2 2 2 3 3 4 3 3 3 2 3 4 4 4 4 4 5 4 2 3 4 5 5 4 5 5 6 6 4 1 1 1 3
4 4 4 4 4 4 5 4 2 2 3 2 2 3 3 4 4 3 3 2 3 3 3 4 5 5 6 4 3 3 5 6 4 4 3 3 3 4 4 4 4 3 2
3 3 3 3 3 3 3 2 2 2 2 2 2 3 3 4 4 4 3 3 3 3 3 4 4 6 6 6 5 5 7 5 3 3 3 3 3 3 3 4 4 4 4
3 3 2 2 2 2 2 2 2 2 2 2 2 3 3 3 4 3 3 3 3 3 4 4 4 5 6 6 4 5 6 3 2 2 2 3 3 4 4 4 5 5 5
2 2 2 2 1 1 1 1 1 1 2 3 2 3 4 3 3 4 3 4 3 3 3 5 5 5 5 4 6 6 4 2 2 2 4 4 4 4 3 2 3 3 3
2 1 1 1 1 1 1 1 2 2 2 3 3 3 3 2 3 2 2 2 2 3 3 4 4 4 3 4 4 3 2 2 3 4 4 4 3 2 2 2 2 2 2
1 1 1 1 1 1 1 2 3 3 4 4 4 3 2 3 4 4 2 2 2 2 1 2 2 2 2 3 3 3 3 2 3 3 3 3 3 3 3 2 2 2 2
1 1 1 1 1 2 1 2 3 3 4 3 4 4 3 4 4 3 3 2 2 1 1 1 2 2 3 3 4 4 3 3 4 3 3 3 3 3 3 3 2 2 3
2 1 1 1 2 2 2 2 2 4 3 2 3 3 3 2 2 2 2 1 1 1 1 2 3 4 4 4 4 3 3 3 3 2 3 3 3 3 2 3 2 2 3
1 1 1 1 2 2 2 3 3 3 2 3 3 3 2 2 2 2 2 1 1 1 2 3 4 4 4 4 4 3 3 2 2 2 3 3 3 2 2 3 3 3 3
1 1 1 1 2 2 2 2 2 2 2 2 2 2 2 2 1 1 2 1 2 2 3 3 3 3 3 3 3 3 3 3 3 2 2 3 3 3 3 3 3 4 3
1 2 2 1 2 1 1 1 1 2 2 2 2 2 1 1 1 1 2 2 3 3 3 3 3 3 3 2 2 2 2 2 3 2 3 3 3 3 3 4 3 3 3
2 2 3 2 2 2 2 2 2 2 2 2 2 2 3 3 2 3 3 4 4 4 4 3 3 3 2 2 1 2 2 2 3 3 3 3 3 3 3 3 3 3 3
2 2 2 2 2 2 3 2 2 2 2 2 2 2 3 2 2 2 3 3 4 3 3 2 2 2 2 2 2 2 2 3 3 3 3 3 3 3 3 3 3 3 3
1 2 2 2 2 3 2 2 2 2 2 2 2 1 2 2 3 3 3 4 3 2 2 1 1 1 1 1 1 1 2 4 4 4 4 3 3 3 3 3 4 3 3
1 1 1 2 2 2 2 2 2 2 2 1 1 1 2 2 2 3 3 2 2 1 1 1 2 2 2 1 2 2 2 4 4 4 4 4 4 3 3 3 3 4 4
1 2 2 2 2 2 2 2 2 2 1 1 2 2 2 2 2 2 2 2 2 2 2 1 1 1 2 2 2 2 3 3 3 3 2 2 3 3 3 3 3 3 3
2 2 2 2 2 2 2 2 2 2 2 2 2 2 2 1 2 2 1 1 2 2 2 1 1 1 1 2 2 2 2 3 3 3 2 2 3 3 3 3 3 3 2
Wind_Direction
186 190 185 194 192 180 183 193 188 185 190 193 190 177 175 201 198 174 208 197 208 289 304 289 290 278 281 284 261 241 217 190 229 269 257 271 266 275 262 241 246 243 243
185 185 191 191 186 185 196 200 195 194 188 184 171 179 204 215 211 199 220 223 221 250 269 279 292 308 301 273 262 261 250 222 207 257 278 283 265 262 255 256 256 248 236
171 182 200 197 194 200 208 208 201 190 194 190 170 179 209 225 224 221 216 220 218 231 242 243 270 295 295 280 268 267 264 267 227 229 264 266 275 284 290 283 274 273 259
168 182 194 204 204 207 206 203 194 188 195 204 208 213 215 224 225 216 209 217 231 243 234 227 241 231 243 257 267 262 256 262 262 252 268 278 277 290 282 277 293 285 278
173 181 199 205 198 189 180 182 182 195 212 217 218 227 230 229 230 220 224 222 229 247 249 246 243 233 239 247 260 250 236 235 247 255 267 279 283 295 270 253 265 283 279
174 186 193 191 186 186 186 181 177 205 224 226 224 225 235 249 254 228 213 231 232 234 244 255 257 265 274 278 275 258 230 224 230 231 245 243 256 251 253 255 250 267 288
179 189 189 177 179 191 191 184 199 212 219 239 245 234 241 258 255 236 220 222 235 238 238 245 260 271 265 273 289 295 281 259 229 217 225 238 240 237 235 258 245 230 241
187 193 191 187 195 201 196 203 215 215 221 233 246 239 241 261 256 241 228 226 240 249 242 232 233 252 261 253 262 283 281 276 259 238 224 237 240 235 221 225 232 244 265
194 195 193 189 196 207 220 225 218 208 223 238 246 242 241 268 267 242 218 224 244 259 258 246 230 241 259 254 243 264 284 287 281 259 243 241 242 240 222 197 235 230 273
203 202 195 192 201 216 225 225 213 203 217 231 255 250 240 256 263 250 218 218 240 260 269 264 249 249 260 253 233 240 262 274 286 297 292 283 267 252 237 213 208 217 240
201 191 196 206 213 222 223 213 202 200 216 243 262 270 257 251 256 246 227 213 226 238 254 263 265 264 264 261 244 238 248 260 270 270 275 280 277 264 256 243 222 207 217
182 183 200 210 224 231 207 213 212 212 229 253 264 279 278 268 259 256 242 224 224 223 248 259 263 269 270 269 257 261 263 266 272 275 280 278 267 260 259 253 242 230 225
167 179 192 190 214 207 190 219 243 245 246 261 257 267 281 286 284 280 264 253 250 240 257 269 279 280 283 278 273 274 269 255 252 259 261 262 261 261 260 263 271 264 270
139 161 176 191 248 299 246 231 236 246 249 258 253 259 274 290 292 292 286 286 283 274 286 295 292 281 275 275 287 288 266 241 234 246 257 267 279 281 265 247 249 258 273
117 173 199 204 219 250 271 264 246 240 228 229 237 232 240 267 263 242 240 264 262 256 288 323 323 316 301 293 287 283 273 270 261 261 257 271 281 281 274 266 253 249 245
151 229 240 232 246 249 262 317 318 279 276 253 233 223 238 241 245 235 236 249 261 215 127 269 276 270 267 271 271 275 272 264 261 257 253 257 265 270 279 282 265 243 250
187 219 248 251 252 249 238 227 281 315 315 280 256 250 246 246 229 234 219 235 275 155 199 258 262 264 263 265 262 257 264 266 265 264 262 263 265 269 274 277 271 266 261
214 227 219 239 248 242 230 226 225 236 273 300 291 261 244 243 244 220 176 104 320 240 244 257 265 267 264 259 255 254 260 268 270 271 268 266 265 266 275 282 268 261 263
233 248 242 237 241 237 230 225 235 240 241 262 303 311 270 241 248 230 164 210 244 260 259 259 262 265 265 263 263 259 256 259 263 258 263 266 266 263 266 269 268 271 262
238 255 243 240 253 258 251 238 234 239 243 238 247 275 335 84 45 283 219 239 252 262 262 260 266 266 262 262 267 266 267 270 275 270 275 274 266 256 257 260 264 268 261
237 249 258 259 251 252 249 246 235 225 224 223 240 240 186 180 214 237 240 240 243 251 254 254 259 263 261 258 259 263 266 275 276 276 279 280 277 267 263 259 259 256 259
234 239 239 240 248 251 250 244 239 227 216 216 249 266 220 203 223 244 253 254 249 243 243 240 252 263 262 254 242 245 263 271 275 280 283 281 277 270 269 266 267 263 259
242 247 250 255 264 270 269 259 243 238 239 246 246 256 247 240 244 243 249 253 248 245 235 219 232 267 312 315 292 244 244 257 258 253 262 270 271 269 261 260 260 263 258
253 245 243 250 245 251 261 262 247 230 224 241 257 249 250 251 252 257 257 250 244 240 221 208 223 246 264 293 304 287 284 285 279 264 249 252 261 267 265 262 263 261 260
244 232 232 234 236 244 262 259 236 226 234 254 261 253 251 253 251 255 265 261 242 244 247 241 271 279 272 271 301 303 304 316 312 294 276 253 258 262 261 258 260 267 270
253 240 233 236 233 230 231 240 241 239 248 256 254 244 232 240 250 251 256 271 268 260 251 254 254 259 302 303 302 314 320 322 321 317 303 270 258 263 268 262 258 261 269
Height
1526 1526 1527 1528 1529 1529 1529 1530 1530 1529 1529 1529 1529 1528 1528 1527 1527 1526 1525 1524 1524 1523 1522 1521 1520 1520 1519 1518 1518 1517 1516 1516 1514 1512 1512 1511 1511 1510 1509 1508 1507 1506 1505
1524 1525 1526 1526 1527 1527 1527 1528 1528 1528 1528 1527 1527 1526 1526 1525 1525 1524 1523 1523 1522 1521 1520 1519 1518 1517 1517 1516 1515 1514 1514 1513 1512 1509 1509 1508 1508 1507 1506 1505 1504 1504 1503
1522 1523 1524 1524 1525 1525 1525 1526 1526 1526 1526 1525 1525 1524 1524 1523 1523 1522 1521 1521 1520 1519 1518 1517 1516 1515 1514 1514 1513 1512 1511 1510 1509 1507 1506 1505 1504 1504 1503 1502 1501 1500 1500
1521 1521 1521 1522 1522 1523 1523 1523 1523 1523 1523 1523 1523 1522 1521 1521 1520 1520 1519 1518 1517 1516 1516 1515 1514 1513 1512 1511 1510 1509 1508 1507 1506 1504 1503 1502 1501 1501 1500 1499 1498 1497 1496
1519 1519 1520 1520 1521 1521 1521 1521 1521 1521 1521 1520 1520 1519 1518 1518 1517 1517 1516 1515 1514 1513 1513 1512 1511 1510 1509 1508 1507 1506 1505 1504 1503 1502 1500 1499 1498 1498 1497 1496 1495 1494 1493
1517 1517 1518 1518 1518 1518 1519 1518 1519 1518 1518 1518 1517 1516 1515 1515 1514 1514 1513 1512 1511 1510 1510 1509 1508 1507 1506 1505 1504 1503 1502 1501 1500 1499 1497 1497 1496 1495 1494 1493 1492 1491 1490
1515 1515 1516 1516 1516 1516 1516 1516 1516 1516 1515 1514 1514 1513 1512 1512 1511 1510 1510 1509 1508 1507 1506 1506 1505 1504 1503 1502 1501 1500 1499 1498 1497 1496 1494 1493 1493 1492 1491 1490 1490 1488 1487
1513 1513 1513 1513 1513 1513 1513 1513 1513 1512 1512 1511 1510 1509 1509 1508 1508 1507 1506 1506 1505 1504 1503 1503 1502 1501 1500 1499 1497 1496 1495 1494 1493 1492 1491 1491 1490 1489 1489 1488 1487 1486 1484
1510 1510 1511 1511 1511 1510 1510 1510 1509 1509 1509 1508 1507 1506 1505 1504 1504 1503 1503 1502 1501 1500 1500 1499 1498 1497 1496 1495 1494 1492 1491 1490 1490 1489 1489 1488 1487 1487 1486 1485 1484 1482 1480
1507 1507 1508 1508 1508 1507 1507 1507 1506 1506 1505 1505 1504 1503 1502 1501 1500 1500 1499 1498 1497 1496 1496 1495 1494 1494 1493 1491 1490 1489 1487 1487 1487 1486 1485 1484 1484 1483 1483 1482 1481 1479 1478
1504 1505 1505 1505 1504 1504 1504 1504 1503 1503 1502 1502 1501 1500 1499 1498 1497 1496 1496 1495 1494 1493 1492 1491 1490 1489 1489 1488 1487 1486 1485 1484 1484 1483 1482 1481 1480 1480 1479 1478 1477 1476 1475
1501 1501 1501 1501 1501 1501 1501 1500 1500 1500 1499 1498 1498 1497 1496 1496 1494 1493 1493 1492 1491 1490 1489 1488 1487 1486 1485 1484 1483 1483 1482 1482 1481 1479 1478 1477 1477 1476 1475 1475 1474 1473 1472
1498 1498 1498 1498 1498 1498 1498 1497 1497 1497 1496 1495 1494 1494 1493 1492 1492 1491 1490 1489 1488 1487 1486 1485 1484 1483 1482 1481 1480 1479 1479 1478 1477 1476 1475 1474 1474 1473 1472 1472 1471 1470 1469
1496 1496 1496 1496 1496 1495 1495 1495 1494 1494 1493 1492 1492 1491 1490 1489 1488 1487 1487 1486 1484 1484 1483 1482 1481 1480 1479 1478 1477 1476 1476 1475 1474 1473 1472 1471 1471 1470 1468 1468 1467 1466 1465
1494 1493 1493 1493 1493 1493 1492 1492 1491 1491 1490 1490 1489 1488 1487 1486 1485 1485 1483 1483 1482 1480 1479 1478 1478 1476 1475 1474 1474 1473 1472 1472 1471 1470 1469 1468 1467 1466 1465 1465 1464 1462 1461
1491 1491 1491 1491 1490 1490 1489 1489 1488 1488 1487 1487 1486 1485 1484 1484 1483 1482 1481 1479 1479 1478 1477 1475 1475 1473 1472 1471 1471 1470 1469 1468 1467 1466 1465 1465 1464 1463 1462 1461 1460 1459 1457
1489 1488 1488 1488 1487 1487 1486 1485 1485 1485 1484 1484 1483 1482 1482 1481 1480 1479 1479 1477 1476 1476 1474 1473 1472 1471 1470 1469 1468 1467 1466 1466 1465 1464 1463 1462 1461 1460 1459 1458 1457 1455 1454
1487 1486 1486 1485 1485 1484 1484 1483 1482 1481 1480 1480 1480 1479 1478 1478 1477 1476 1476 1475 1473 1472 1471 1470 1469 1468 1467 1466 1465 1464 1463 1463 1462 1461 1460 1459 1458 1457 1455 1454 1453 1452 1450
1484 1484 1483 1483 1482 1481 1481 1480 1479 1478 1477 1476 1476 1475 1475 1474 1474 1473 1472 1471 1470 1469 1468 1467 1466 1465 1464 1463 1462 1461 1460 1459 1459 1458 1456 1456 1454 1453 1452 1451 1450 1448 1447
1481 1481 1480 1479 1479 1478 1477 1477 1476 1475 1474 1473 1473 1472 1472 1471 1470 1469 1469 1468 1467 1466 1465 1464 1463 1462 1461 1460 1459 1457 1456 1456 1455 1454 1453 1452 1451 1450 1448 1447 1446 1444 1443
1477 1477 1476 1476 1475 1475 1474 1473 1473 1472 1471 1471 1470 1470 1469 1468 1467 1466 1465 1464 1463 1462 1461 1460 1459 1458 1457 1456 1455 1454 1453 1452 1451 1450 1449 1448 1447 1446 1444 1443 1442 1441 1440
1475 1474 1473 1472 1472 1471 1471 1471 1470 1470 1469 1468 1468 1467 1467 1465 1464 1463 1462 1461 1460 1459 1458 1457 1456 1455 1454 1453 1452 1450 1449 1448 1447 1446 1445 1444 1443 1442 1440 1439 1438 1437 1436
1472 1471 1470 1469 1469 1468 1468 1467 1467 1467 1466 1466 1465 1464 1463 1462 1461 1460 1459 1458 1457 1456 1455 1454 1453 1452 1451 1449 1448 1447 1445 1444 1443 1442 1441 1440 1439 1438 1437 1436 1435 1434 1433
1469 1468 1467 1466 1466 1465 1465 1464 1464 1464 1463 1463 1462 1461 1460 1459 1458 1457 1456 1455 1454 1453 1452 1451 1449 1448 1447 1446 1444 1443 1442 1440 1439 1438 1438 1436 1435 1434 1433 1432 1432 1431 1430
1466 1465 1464 1463 1463 1462 1462 1461 1461 1460 1460 1459 1459 1458 1457 1456 1455 1454 1453 1452 1451 1450 1448 1447 1446 1445 1443 1442 1441 1439 1438 1437 1436 1435 1433 1432 1431 1431 1430 1429 1428 1427 1426
1463 1462 1461 1460 1460 1460 1459 1458 1458 1457 1456 1456 1455 1454 1454 1453 1452 1451 1449 1449 1447 1446 1445 1444 1443 1441 1440 1438 1437 1435 1434 1433 1432 1431 1430 1428 1428 1427 1426 1425 1424 1424 1423